[[{"header":{"parameterUnit":"m.s-1","parameterCategory":1,"la1":30.2991,"la2":30.254,"lo1":-89.0895,"lo2":-89.0444,"dx":0.0017,"dy":0.0017,"nx":28,"ny":28,"refTime":"2022-12-13T15:00:00:Z","depth":0,"parameterNumber":2,"parameterNumberName":"U-component_of_WINDS"},"data":[0,0,0,0,0,0,0,0,0,0,0,0,0,0,0,0,0,0,0,0,0,0,0,0,0,0,0,0,0,0,0,0,0,0,0,0,0,0,0,0,0,0,0,0,0,0,0,0,0,0,0,0,0,0,0,0,0,0,-0.6724,-0.6724,0,-0.6733,-0.6733,-0.6734,-0.6732,-0.6732,-0.6732,-0.6732,-0.674,-0.6741,-0.6741,0,0,0,0,0,0,0,0,0,0,0,0,0,-0.6704,-0.6704,-0.6724,-0.6724,-0.6724,-0.6733,-0.6733,-0.6734,-0.6732,-0.6732,-0.6732,-0.6732,-0.674,-0.6741,-0.6741,0,0,0,0,0,0,0,0,0,0,0,0,0,-0.6713,-0.6704,-0.6724,-0.6725,-0.6725,-0.6733,-0.6733,-0.6734,-0.6732,-0.6732,-0.6732,-0.6732,-0.674,-0.6741,-0.6741,-0.6749,0,0,-0.6743,-0.6743,0,0,0,0,0,0,0,0,-0.6712,-0.6713,-0.6725,-0.6725,-0.6725,-0.6732,-0.6729,-0.6739,-0.6732,-0.673,-0.6732,-0.6732,-0.6737,-0.6738,-0.674,-0.6749,-0.675,-0.6743,-0.6743,-0.6743,-0.6743,0,0,0,0,0,0,0,-0.6712,-0.6713,-0.6728,-0.6725,-0.6725,-0.6724,-0.6725,-0.6731,-0.6735,-0.673,-0.673,-0.6731,-0.6737,-0.674,-0.6741,-0.675,-0.6743,-0.6743,-0.6744,-0.6744,-0.6764,-0.6765,0,0,0,0,0,0,-0.6711,-0.6713,-0.6727,-0.6728,-0.6718,-0.6725,-0.6726,-0.673,-0.6735,-0.6735,-0.6731,-0.6731,-0.6739,-0.674,-0.6741,-0.675,-0.6743,-0.6744,-0.6744,-0.6764,-0.6764,-0.6765,0,0,0,0,0,0,-0.6711,-0.6712,-0.6727,-0.672,-0.6722,-0.6725,-0.673,-0.673,-0.6732,-0.6736,-0.6736,-0.6733,-0.6739,-0.674,-0.6747,-0.675,-0.6744,-0.6745,-0.6764,-0.6764,-0.6764,-0.6768,0,0,0,0,0,0,-0.671,-0.6712,-0.6716,-0.672,-0.6722,-0.6733,-0.673,-0.673,-0.6733,-0.6733,-0.6737,-0.6738,-0.6739,-0.6746,-0.6747,-0.6751,-0.6745,-0.6764,-0.6764,-0.6764,-0.6767,-0.6768,-0.6769,0,0,0,0,0,-0.6709,-0.6716,-0.6716,-0.6718,-0.6727,-0.6733,-0.6735,-0.6736,-0.6734,-0.6737,-0.6739,-0.6738,-0.6749,-0.6747,-0.6748,-0.6752,-0.6763,-0.6764,-0.6764,-0.6767,-0.6768,-0.6769,0,0,0,0,0,0,-0.6711,-0.6717,-0.6716,-0.6725,-0.6729,-0.6733,-0.6737,-0.6737,-0.6741,-0.6741,-0.6742,-0.6743,-0.6749,-0.6751,-0.6748,-0.6759,-0.6756,-0.6757,-0.6757,-0.6758,-0.6759,-0.6758,-0.6745,0,0,0,0,0,-0.6713,-0.6718,-0.6723,-0.673,-0.6732,-0.6734,-0.6737,-0.6738,-0.6741,-0.6743,-0.6745,-0.6749,-0.6753,-0.6756,-0.676,-0.6767,-0.6768,-0.6771,-0.6771,-0.6772,-0.6772,-0.6776,-0.6777,-0.6766,-0.6766,-0.6766,0,0,-0.6716,-0.672,-0.6723,-0.673,-0.6733,-0.6738,-0.6735,-0.6741,-0.6744,-0.6744,-0.675,-0.6752,-0.6755,-0.6762,-0.6766,-0.6764,-0.6775,-0.6772,-0.6773,-0.6773,-0.6776,-0.6777,-0.6778,-0.6767,-0.6767,-0.6766,0,0,-0.6724,-0.6728,-0.6734,-0.6737,-0.6741,-0.6743,-0.6744,-0.6749,-0.675,-0.6756,-0.6755,-0.6759,-0.6767,-0.6769,-0.6772,-0.678,-0.6779,-0.6781,-0.6785,-0.6788,-0.6789,-0.6789,-0.6792,-0.6793,-0.6782,-0.6782,-0.6782,0,-0.6727,-0.6735,-0.6737,-0.6742,-0.6745,-0.6745,-0.675,-0.6753,-0.6759,-0.676,-0.6759,-0.6768,-0.677,-0.6777,-0.6779,-0.6781,-0.6782,-0.6781,-0.6789,-0.6789,-0.679,-0.6792,-0.6793,-0.6782,-0.6782,-0.6782,-0.6782,0,-0.6739,-0.6744,-0.6748,-0.6754,-0.6757,-0.6762,-0.6764,-0.6767,-0.6767,-0.6769,-0.6775,-0.6778,-0.6782,-0.6784,-0.6784,-0.6791,-0.679,-0.6788,-0.6786,-0.6791,-0.6793,-0.6794,-0.6782,-0.6782,-0.6782,-0.6782,0,0,-0.6749,-0.6754,-0.6756,-0.6758,-0.6763,-0.6767,-0.6772,-0.6776,-0.6778,-0.6782,-0.6786,-0.6792,-0.6791,-0.6793,-0.6794,-0.6796,-0.6802,-0.6795,-0.6795,-0.6795,-0.6808,-0.6809,-0.681,-0.6801,-0.6802,-0.6802,-0.6808,0,-0.6757,-0.6766,-0.6767,-0.6775,-0.678,-0.6779,-0.6783,-0.6786,-0.6788,-0.6791,-0.6793,-0.6797,-0.6795,-0.6796,-0.6799,-0.6801,-0.6804,-0.68,-0.6804,-0.6804,-0.6803,-0.6811,-0.6812,-0.6818,-0.6809,-0.6809,-0.6809,0,-0.6767,-0.6771,-0.678,-0.6783,-0.6785,-0.6789,-0.6793,-0.6797,-0.68,-0.68,-0.6803,-0.6803,-0.6807,-0.6804,-0.681,-0.6807,-0.6809,-0.681,-0.681,-0.681,-0.6807,-0.6811,-0.682,-0.6821,-0.681,-0.681,-0.681,0,-0.6773,-0.678,-0.6786,-0.6788,-0.6792,-0.6795,-0.6797,-0.68,-0.6802,-0.6805,-0.6807,-0.681,-0.6812,-0.6815,-0.6815,-0.6813,-0.6821,-0.6818,-0.6821,-0.6821,-0.6823,-0.6822,-0.6831,-0.6824,-0.6824,-0.6824,-0.6824,0,-0.6782,-0.6787,-0.6789,-0.6792,-0.6798,-0.6799,-0.6804,-0.6805,-0.6808,-0.6811,-0.6811,-0.6814,-0.6815,-0.6818,-0.6818,-0.6823,-0.6824,-0.6824,-0.6824,-0.6824,-0.6824,-0.6825,-0.6824,-0.6825,-0.6825,-0.6825,-0.6825,0,-0.6789,-0.679,-0.6796,-0.68,-0.6801,-0.6804,-0.6807,-0.681,-0.6811,-0.6816,-0.6817,-0.6818,-0.6822,-0.6823,-0.6827,-0.6827,-0.6832,-0.6832,-0.6831,-0.6831,-0.6834,-0.6833,-0.6843,-0.6844,-0.6837,-0.6837,-0.6837,0,-0.6794,-0.6798,-0.6801,-0.6804,-0.6805,-0.6809,-0.6812,-0.6813,-0.6815,-0.6818,-0.6821,-0.6824,-0.6827,-0.6833,-0.6834,-0.6837,-0.6837,-0.684,-0.6837,-0.6837,-0.6836,-0.6836,-0.6836,-0.6841,-0.6841,-0.6841,-0.6841,0,-0.6802,-0.6803,-0.6807,-0.681,-0.6813,-0.6816,-0.6819,-0.6821,-0.6822,-0.6824,-0.6828,-0.683,-0.6835,-0.6838,-0.6841,-0.6842,-0.6841,-0.6842,-0.6842,-0.6842,-0.6841,-0.6841,-0.6832,-0.6841,-0.6841,-0.6841,-0.6841,-0.6841,-0.6808,-0.6811,-0.6814,-0.6818,-0.682,-0.6823,-0.6826,-0.6827,-0.683,-0.6834,-0.6834,-0.6838,-0.684,-0.6844,-0.6846,-0.6848,-0.6847,-0.6848,-0.6849,-0.6849,-0.6849,-0.6841,-0.6849,-0.6849,-0.6849,-0.6849,-0.6849,0,-0.6816,-0.6818,-0.6822,-0.6825,-0.6828,-0.6828,-0.683,-0.6833,-0.6836,-0.6838,-0.6841,-0.6845,-0.6848,-0.685,-0.6853,-0.6854,-0.6854,-0.6855,-0.6855,-0.6855,-0.685,-0.6849,-0.6855,-0.6855,-0.6855,-0.6855,-0.6855,-0.6855,-0.6821,-0.6826,-0.6827,-0.6832,-0.6834,-0.6838,-0.6839,-0.6841,-0.6843,-0.6848,-0.685,-0.6851,-0.6853,-0.6856,-0.6859,-0.6859,-0.686,-0.6861,-0.6861,-0.6856,-0.6855,-0.6855,-0.6854,-0.6861,-0.6861,-0.6866,-0.6866,-0.6866]},{"header":{"parameterUnit":"m.s-1","parameterCategory":1,"la1":30.2991,"la2":30.254,"lo1":-89.0895,"lo2":-89.0444,"dx":0.0017,"dy":0.0017,"nx":28,"ny":28,"refTime":"2022-12-13T15:00:00:Z","depth":0,"parameterNumber":3,"parameterNumberName":"V-component_of_WINDS"},"data":[0,0,0,0,0,0,0,0,0,0,0,0,0,0,0,0,0,0,0,0,0,0,0,0,0,0,0,0,0,0,0,0,0,0,0,0,0,0,0,0,0,0,0,0,0,0,0,0,0,0,0,0,0,0,0,0,0,0,5.5659,5.566,0,5.5799,5.5801,5.5802,5.5835,5.5834,5.5834,5.5833,5.5976,5.5981,5.5986,0,0,0,0,0,0,0,0,0,0,0,0,0,5.5423,5.5427,5.5659,5.5661,5.5662,5.5799,5.5801,5.5803,5.5836,5.5834,5.5833,5.5832,5.5975,5.598,5.5986,0,0,0,0,0,0,0,0,0,0,0,0,0,5.554,5.5428,5.5658,5.5695,5.57,5.5798,5.5801,5.5803,5.5836,5.5834,5.5833,5.5832,5.5973,5.598,5.5987,5.6059,0,0,5.6008,5.6011,0,0,0,0,0,0,0,0,5.5534,5.5549,5.5688,5.5693,5.5698,5.5798,5.577,5.5889,5.5836,5.5784,5.5833,5.5831,5.5918,5.593,5.5959,5.6066,5.6072,5.6009,5.6013,5.6016,5.6018,0,0,0,0,0,0,0,5.5525,5.5543,5.5714,5.569,5.5696,5.5706,5.5721,5.5793,5.5858,5.5789,5.5791,5.5808,5.5921,5.5952,5.5963,5.6074,5.6009,5.6015,5.6019,5.6022,5.6252,5.6254,0,0,0,0,0,0,5.5511,5.5536,5.571,5.5718,5.5611,5.5711,5.5728,5.5768,5.5857,5.5869,5.5809,5.5809,5.5941,5.5955,5.5968,5.6062,5.6016,5.6023,5.6027,5.625,5.6252,5.6254,0,0,0,0,0,0,5.5505,5.5526,5.5704,5.5628,5.5652,5.5717,5.5761,5.5771,5.5803,5.5872,5.5884,5.5829,5.594,5.5958,5.6037,5.6067,5.6026,5.6033,5.6248,5.6251,5.6253,5.6247,0,0,0,0,0,0,5.5498,5.5524,5.5551,5.5629,5.5656,5.577,5.5763,5.5775,5.5815,5.5816,5.5894,5.5905,5.5941,5.6027,5.6044,5.6076,5.6038,5.6245,5.6249,5.6252,5.6245,5.625,5.6253,0,0,0,0,0,5.549,5.5542,5.5552,5.5573,5.5691,5.5771,5.5787,5.5826,5.5817,5.5846,5.5891,5.5903,5.6061,5.6034,5.6055,5.6089,5.6244,5.6248,5.6252,5.6243,5.6249,5.6253,0,0,0,0,0,0,5.5465,5.5553,5.5564,5.5643,5.57,5.5777,5.5814,5.583,5.589,5.5889,5.5935,5.5953,5.603,5.6067,5.6036,5.6166,5.6152,5.6161,5.6139,5.6144,5.6148,5.6138,5.6044,0,0,0,0,0,5.5469,5.5527,5.5601,5.5663,5.5691,5.5748,5.5784,5.581,5.5871,5.5894,5.5945,5.6004,5.6067,5.6107,5.6169,5.6251,5.627,5.6285,5.6289,5.6292,5.6299,5.6349,5.6358,5.6268,5.6268,5.6268,0,0,5.5477,5.5533,5.5566,5.566,5.5707,5.5767,5.5768,5.583,5.5876,5.5904,5.5983,5.6022,5.6091,5.6173,5.6211,5.6206,5.6328,5.6297,5.6299,5.6305,5.6354,5.6363,5.637,5.6271,5.627,5.627,0,0,5.5524,5.557,5.563,5.5677,5.5749,5.5787,5.5801,5.5877,5.5905,5.5984,5.6008,5.6064,5.617,5.622,5.6258,5.6329,5.6343,5.6347,5.6369,5.6417,5.6425,5.6431,5.6459,5.6468,5.6354,5.6354,5.6354,0,5.5525,5.5617,5.5658,5.5722,5.5764,5.5793,5.5855,5.5899,5.5987,5.6016,5.6009,5.6147,5.6195,5.6291,5.6308,5.6337,5.6358,5.6339,5.642,5.6427,5.6434,5.6461,5.6471,5.6354,5.6354,5.6354,5.6354,0,5.5617,5.568,5.572,5.5806,5.5852,5.5914,5.5967,5.6009,5.6032,5.6071,5.6154,5.6213,5.6289,5.6314,5.6335,5.6414,5.6409,5.6411,5.6398,5.6442,5.6469,5.6479,5.6354,5.6354,5.6354,5.6354,0,0,5.565,5.5761,5.5775,5.5816,5.5899,5.5949,5.6014,5.6089,5.6127,5.6187,5.6244,5.6336,5.6339,5.6384,5.6412,5.6454,5.651,5.6451,5.6453,5.6462,5.6605,5.6605,5.6616,5.652,5.6522,5.6524,5.66,0,5.5709,5.5826,5.5867,5.5964,5.6025,5.6056,5.6113,5.6171,5.621,5.6269,5.6312,5.6378,5.6375,5.6403,5.6446,5.6494,5.654,5.6489,5.6576,5.6579,5.656,5.663,5.6629,5.6698,5.661,5.6612,5.6613,0,5.5793,5.5856,5.596,5.6039,5.6067,5.6117,5.6192,5.6247,5.6314,5.634,5.6392,5.6418,5.649,5.6472,5.6573,5.6538,5.6576,5.6606,5.661,5.662,5.66,5.6645,5.672,5.6731,5.663,5.6628,5.6627,0,5.5811,5.5922,5.6,5.6033,5.6127,5.6162,5.6203,5.6269,5.6313,5.6379,5.6409,5.6481,5.6521,5.6578,5.6624,5.6606,5.6722,5.6707,5.6748,5.6747,5.6771,5.6769,5.6856,5.6792,5.6792,5.6792,5.6792,0,5.5873,5.5936,5.6009,5.6057,5.613,5.6177,5.6248,5.6291,5.6351,5.6409,5.6439,5.6493,5.655,5.6612,5.6648,5.6729,5.6746,5.677,5.678,5.6769,5.6766,5.6796,5.6793,5.6795,5.6794,5.6794,5.6793,0,5.5905,5.5956,5.6044,5.6126,5.6149,5.6199,5.627,5.6319,5.6361,5.6434,5.6454,5.652,5.6595,5.6647,5.6743,5.6768,5.6856,5.6863,5.6833,5.6838,5.6876,5.6873,5.6987,5.7006,5.6927,5.6927,5.6928,0,5.5942,5.5992,5.6081,5.6123,5.6164,5.623,5.6276,5.6325,5.6372,5.6456,5.6495,5.6573,5.6638,5.6757,5.6814,5.6889,5.69,5.6935,5.6911,5.69,5.6904,5.6901,5.6908,5.6939,5.6939,5.694,5.694,0,5.6004,5.6028,5.6093,5.6169,5.6223,5.6285,5.6346,5.6379,5.644,5.6492,5.657,5.662,5.672,5.6798,5.6879,5.6922,5.6943,5.6947,5.6961,5.6951,5.6933,5.6947,5.6846,5.6944,5.6944,5.6944,5.6943,5.6943,5.6042,5.6089,5.6161,5.6233,5.6286,5.6344,5.6395,5.6444,5.651,5.6596,5.6621,5.6704,5.6774,5.6885,5.693,5.6997,5.6994,5.7013,5.7018,5.7023,5.7024,5.6921,5.7011,5.7011,5.7011,5.7011,5.7011,0,5.6108,5.6156,5.6223,5.631,5.6368,5.6382,5.6453,5.6501,5.6573,5.6637,5.6701,5.6793,5.687,5.6934,5.7014,5.7055,5.7067,5.7074,5.7073,5.7083,5.7021,5.7002,5.7064,5.7064,5.7064,5.7064,5.7064,5.7064,5.615,5.6232,5.6265,5.6374,5.6422,5.6503,5.6543,5.6598,5.665,5.6751,5.6816,5.6857,5.6923,5.7008,5.708,5.7098,5.7127,5.7133,5.7153,5.7093,5.7087,5.7081,5.7065,5.7138,5.7139,5.721,5.7211,5.7212]}]]